Weather in Shemyatino

Russia / Kostroma Oblast     58°04′25″N   44°08′01″E
temp.,
°C
wind,
m/s
gust,
m/s
humid.,
%
clouds,
%
prec.,
mm/h
press.,
hPa
HPBL,
m
17 may, mon
mon1700:00+14sw24850 0.0 101366
03:00+12sw23930 0.0 101547
06:00+15w23793 0.0 1016180
09:00+20wsw24567 0.0 1017774
12:00+23w344588 0.0 10171537
15:00+25w224139 0.0 10171779
18:00+24nne11539 0.0 101745
21:00+17ene357597 0.0 101781
18 may, tue
tue1800:00+15e3882100 0.0 1017152
03:00+14e3891100 0.4 1018170
06:00+16e31085100 0.0 1018275
09:00+22ese475913 0.0 1018617
12:00+26ese4647100 0.0 10171219
15:00+27se574499 0.0 10171936
18:00+25ese4957100 0.0 1016445
21:00+21ese5147297 0.0 1017440
19 may, wed
wed1900:00+18se51580100 0.0 1017449
03:00+17ese4138164 0.0 1017357
06:00+18se413726 0.0 1017404
09:00+24se59524 0.0 1016601
12:00+28se56375 0.0 10161509
15:00+29se56320 0.0 10152363
18:00+26se48504 0.0 1015760
21:00+19ese310733 0.0 1016245
20 may, thu
thu2000:00+18se413710 0.0 1015346
03:00+15se311780 0.0 1015243
06:00+18se310710 0.0 1015286
09:00+24se59520 0.0 1015735
12:00+27se69310 0.0 10141481
15:00+27se610420 0.0 10131796
18:00+24se611531 0.0 10131565
21:00+19sse3117812 0.6 1014470
21 may, fri
fri2100:00+16sse399514 0.8 1014249
03:00+15s299791 0.8 1014251
06:00+16s3988100 0.0 1014424
09:00+20s6106233 0.1 10141429
12:00+20sw6962100 0.4 10141404
15:00+19sw695683 0.4 10161276
18:00+19sw4956100 0.0 10161908
21:00+14sw367951 0.0 1018131